Anchorage Merrill, AK

11:36 AM AKST on December 15, 2017 (GMT -0900)
Merrill

Weather History for PAMR - September, 2013

Change the Weather History Date:

Wednesday, September 25, 2013

  Actual Average Record
Temperature  
Mean Temperature 44 °F -  
Max Temperature 50 °F 49 °F 59 °F (1997)
Min Temperature 39 °F 36 °F 27 °F (1993)
Degree Days  
Heating Degree Days 20    
Moisture  
Dew Point 39 °F    
Average Humidity 84    
Maximum Humidity 89    
Minimum Humidity 76    
Precipitation  
Precipitation 0.90 in - - ()
Sea Level Pressure  
Sea Level Pressure 29.56 in    
Wind  
Wind Speed 5 mph (NNW)    
Max Wind Speed 12 mph    
Max Gust Speed -    
Visibility 8 miles    
Events Rain    
Averages and records for this station are not official NWS values.
T = Trace of Precipitation, MM = Missing Value Source: NWS Daily Summary

Daily Weather History Graph

Daily Weather History Graph

Search for Another Location

Airport or City:

Trip Planner

Search our weather history database for the weather conditions in past years. The results will help you decide how hot, cold, wet, or windy it might be!

Date:

Astronomy

Sep. 25, 2013 Rise Set
Actual Time 7:51 AM AKDT 7:48 PM AKDT
Civil Twilight 7:08 AM AKDT 8:31 PM AKDT
Nautical Twilight 6:17 AM AKDT 9:22 PM AKDT
Astronomical Twilight 5:21 AM AKDT 10:18 PM AKDT
Moon 10:31 PM AKDT (9/25) 3:38 PM AKDT (9/25)
Length of Visible Light 13h 22m
Length of Day
11h 56m
Waning Gibbous, 62% of the Moon is Illuminated
Sep 25
Waning Gibbous
Sep 26
Last Quarter
Oct 4
New
Oct 11
First Quarter
Oct 18
Full

Hourly Weather History & Observations

Time (AKDT) Temp. Windchill Dew Point Humidity Pressure Visibility Wind Dir Wind Speed Gust Speed Precip Events Conditions
12:53 AM 42.1 °F 40.2 °F 35.1 °F 76% 29.81 in 8.0 mi ENE 3.5 mph - 0.01 in Rain Light Rain
1:53 AM 41.0 °F 38.0 °F 36.0 °F 82% 29.77 in 5.0 mi North 4.6 mph - 0.13 in Rain Light Rain
2:53 AM 39.9 °F 35.8 °F 36.0 °F 86% 29.73 in 6.0 mi North 5.8 mph - 0.08 in Rain Light Rain
3:11 AM 39.2 °F 35.9 °F 35.6 °F 87% 29.71 in 5.0 mi North 4.6 mph - N/A Rain Light Rain
3:53 AM 41.0 °F - 37.0 °F 86% 29.68 in 5.0 mi Calm Calm - N/A Rain Light Rain
4:53 AM 41.0 °F 37.1 °F 37.0 °F 86% 29.61 in 9.0 mi NNW 5.8 mph - N/A Rain Light Rain
5:53 AM 42.1 °F 37.1 °F 37.9 °F 85% 29.55 in 7.0 mi NW 8.1 mph - 0.04 in Rain Light Rain
6:53 AM 41.0 °F 34.7 °F 37.9 °F 89% 29.51 in 5.0 mi West 10.4 mph - 0.08 in Rain Light Rain
7:00 AM 41.0 °F 34.3 °F 37.4 °F 87% 29.52 in 4.0 mi WNW 11.5 mph - 0.02 in Rain Light Rain
7:53 AM 41.0 °F 38.0 °F 37.9 °F 89% 29.49 in 4.0 mi WNW 4.6 mph - 0.18 in Rain Rain
8:53 AM 42.1 °F 38.4 °F 37.9 °F 85% 29.53 in 3.0 mi North 5.8 mph - 0.18 in Rain Rain
9:02 AM 41.0 °F 38.0 °F 37.4 °F 87% 29.51 in 3.0 mi NNE 4.6 mph - 0.03 in Rain Rain
9:26 AM 41.0 °F 35.8 °F 37.4 °F 87% 29.48 in 5.0 mi North 8.1 mph - 0.07 in Rain Rain
9:34 AM 42.8 °F 39.3 °F 37.4 °F 81% 29.48 in 7.0 mi North 5.8 mph - 0.08 in Rain Light Rain
9:53 AM 41.0 °F 36.4 °F 37.9 °F 89% 29.48 in 10.0 mi North 6.9 mph - 0.08 in Rain Light Rain
10:07 AM 42.8 °F 38.6 °F 37.4 °F 81% 29.49 in 10.0 mi North 6.9 mph - 0.00 in Rain Light Rain
10:53 AM 42.1 °F 37.7 °F 39.0 °F 89% 29.48 in 10.0 mi NW 6.9 mph - 0.01 in Rain Light Rain
11:53 AM 44.1 °F - 39.9 °F 85% 29.49 in 10.0 mi Calm Calm - 0.00 in Rain Light Rain
12:53 PM 44.1 °F 40.1 °F 39.9 °F 85% 29.50 in 10.0 mi WNW 6.9 mph - 0.00 in   Overcast
1:53 PM 46.0 °F - 41.0 °F 83% 29.53 in 10.0 mi Calm Calm - 0.00 in Rain Light Rain
2:53 PM 46.0 °F - 41.0 °F 83% 29.53 in 6.0 mi Calm Calm - 0.02 in Rain Light Rain
3:53 PM 48.0 °F - 42.1 °F 80% 29.54 in 10.0 mi NNE 3.5 mph - 0.00 in   Mostly Cloudy
4:53 PM 48.9 °F - 43.0 °F 80% 29.55 in 10.0 mi NNE 5.8 mph - N/A   Mostly Cloudy
5:53 PM 50.0 °F - 43.0 °F 77% 29.55 in 10.0 mi NNE 5.8 mph - 0.00 in Rain Light Rain
6:53 PM 48.9 °F - 43.0 °F 80% 29.55 in 10.0 mi NNW 3.5 mph - 0.01 in Rain Light Rain
7:53 PM 48.9 °F - 43.0 °F 80% 29.55 in 10.0 mi North 5.8 mph - 0.01 in Rain Light Rain
8:53 PM 48.0 °F - 43.0 °F 83% 29.55 in 10.0 mi North 8.1 mph - 0.00 in   Overcast
9:53 PM 48.0 °F - 43.0 °F 83% 29.57 in 10.0 mi Calm Calm - N/A   Overcast
10:53 PM 48.0 °F - 43.0 °F 83% 29.58 in 9.0 mi North 3.5 mph - 0.03 in Rain Light Rain
11:53 PM 46.9 °F - 43.0 °F 86% 29.58 in 6.0 mi NNW 3.5 mph - 0.04 in Rain Rain